| time (UTC) | temp C | wind direction | speed KPH | gust KPH | rain 1hr cm | rain 24hr cm | rain mn cm | humidity % | barometer mb |
| 20260504193004 | 21 | 162 | 3.2 | 6.4 | 0.00 | 1.12 | 1.12 | 74 | 1003.6 |
| 20260504191506 | 18 | 46 | 0.0 | 6.4 | 0.00 | 1.12 | 1.12 | 83 | 1003.3 |
| 20260504190111 | 17 | 106 | 3.2 | 6.4 | 0.03 | 1.12 | 1.12 | 84 | 1004.0 |
| 20260504184616 | 17 | 315 | 0.0 | 1.6 | 0.48 | 1.12 | 1.12 | 84 | 1004.9 |
| 20260504183109 | 17 | 127 | 0.0 | 1.6 | 0.97 | 1.12 | 1.12 | 84 | 1004.7 |
| 20260504181558 | 16 | 141 | 0.0 | 3.2 | 0.99 | 1.12 | 1.12 | 84 | 1004.5 |
| 20260504180057 | 16 | 73 | 1.6 | 6.4 | 1.02 | 1.09 | 1.09 | 84 | 1004.0 |
| 20260504174557 | 16 | 51 | 1.6 | 4.8 | 0.56 | 0.58 | 0.58 | 82 | 1005.2 |
| 20260504173056 | 17 | 68 | 0.0 | 1.6 | 0.15 | 0.15 | 0.15 | 80 | 1005.4 |
| 20260504171549 | 17 | 86 | 0.0 | 3.2 | 0.10 | 0.10 | 0.10 | 75 | 1005.4 |
| 20260504081502 | 17 | 119 | 0.0 | 0.0 | 0.00 | 0.00 | 0.00 | 65 | 1008.0 |
| 20260504044540 | 20 | 224 | 0.0 | 8.0 | 0.00 | 0.00 | 0.00 | 50 | 1007.7 |
| 20260504043033 | 20 | 275 | 0.0 | 1.6 | 0.00 | 0.00 | 0.00 | 49 | 1007.9 |
| 20260504041532 | 21 | 311 | 0.0 | 1.6 | 0.00 | 0.00 | 0.00 | 49 | 1008.6 |
| 20260504040032 | 21 | 197 | 0.0 | 11.3 | 0.00 | 0.00 | 0.00 | 48 | 1008.1 |
| 20260504034551 | 21 | 206 | 0.0 | 6.4 | 0.00 | 0.00 | 0.00 | 48 | 1008.8 |
| 20260504033030 | 21 | 21 | 0.0 | 1.6 | 0.00 | 0.00 | 0.00 | 48 | 1009.1 |
| 20260504031529 | 21 | 77 | 0.0 | 0.0 | 0.00 | 0.00 | 0.00 | 48 | 1009.3 |
| 20260504030040 | 21 | 143 | 0.0 | 1.6 | 0.00 | 0.00 | 0.00 | 48 | 1009.1 |
| 20260504024528 | 21 | 319 | 0.0 | 0.0 | 0.00 | 0.00 | 0.00 | 48 | 1009.1 |
| 20260504023027 | 22 | 319 | 0.0 | 1.6 | 0.00 | 0.00 | 0.00 | 45 | 1009.2 |
| 20260504021526 | 22 | 287 | 0.0 | 1.6 | 0.00 | 0.00 | 0.00 | 44 | 1009.1 |
| 20260504020029 | 22 | 39 | 0.0 | 3.2 | 0.00 | 0.00 | 0.00 | 42 | 1008.8 |
| 20260504014536 | 23 | 139 | 0.0 | 6.4 | 0.00 | 0.00 | 0.00 | 41 | 1008.7 |
| 20260504013025 | 23 | 31 | 0.0 | 4.8 | 0.00 | 0.00 | 0.00 | 41 | 1008.5 |
| 20260504011524 | 23 | 122 | 0.0 | 6.4 | 0.00 | 0.00 | 0.00 | 40 | 1008.5 |
| 20260504010028 | 23 | 43 | 0.0 | 4.8 | 0.00 | 0.00 | 0.00 | 39 | 1008.4 |
| 20260504004524 | 23 | 139 | 0.0 | 4.8 | 0.00 | 0.00 | 0.00 | 39 | 1008.4 |
| 20260504003030 | 23 | 135 | 0.0 | 9.7 | 0.00 | 0.00 | 0.00 | 38 | 1008.3 |
| 20260504001522 | 24 | 255 | 0.0 | 3.2 | 0.00 | 0.00 | 0.00 | 36 | 1008.4 |
| 20260504000020 | 24 | 293 | 0.0 | 12.9 | 0.00 | 0.00 | 0.00 | 36 | 1008.6 |
| 20260503234532 | 25 | 214 | 0.0 | 6.4 | 0.00 | 0.00 | 0.00 | 35 | 1008.7 |
| 20260503233018 | 25 | 254 | 0.0 | 6.4 | 0.00 | 0.00 | 0.00 | 33 | 1008.8 |
| 20260503231517 | 25 | 1 | 0.0 | 4.8 | 0.00 | 0.00 | 0.00 | 31 | 1008.9 |
| 20260503230016 | 25 | 105 | 0.0 | 8.0 | 0.00 | 0.00 | 0.00 | 32 | 1008.9 |
| 20260503224514 | 26 | 165 | 0.0 | 9.7 | 0.00 | 0.00 | 0.00 | 31 | 1009.1 |
| 20260503223014 | 26 | 67 | 1.6 | 9.7 | 0.00 | 0.00 | 0.00 | 30 | 1009.1 |
| 20260503221512 | 26 | 283 | 0.0 | 14.5 | 0.00 | 0.00 | 0.00 | 30 | 1009.2 |
| 20260503220010 | 26 | 203 | 0.0 | 14.5 | 0.00 | 0.00 | 0.00 | 28 | 1009.4 |
| 20260503214513 | 26 | 65 | 1.6 | 14.5 | 0.00 | 0.00 | 0.00 | 29 | 1009.7 |
| 20260503213008 | 26 | 284 | 0.0 | 9.7 | 0.00 | 0.00 | 0.00 | 29 | 1009.8 |
| 20260503211507 | 26 | 286 | 1.6 | 11.3 | 0.00 | 0.00 | 0.00 | 30 | 1010.0 |
| 20260503210007 | 26 | 128 | 0.0 | 14.5 | 0.00 | 0.00 | 0.00 | 31 | 1010.0 |
| 20260503204503 | 26 | 41 | 1.6 | 11.3 | 0.00 | 0.00 | 0.00 | 30 | 1010.2 |
| 20260503203001 | 25 | 287 | 3.2 | 11.3 | 0.00 | 0.00 | 0.00 | 30 | 1010.5 |
| 20260503201604 | 25 | 291 | 1.6 | 11.3 | 0.00 | 0.00 | 0.00 | 34 | 1010.9 |
| 20260503200058 | 25 | 284 | 1.6 | 12.9 | 0.00 | 0.00 | 0.00 | 32 | 1011.3 |
| 20260503194550 | 24 | 165 | 3.2 | 11.3 | 0.00 | 0.00 | 0.00 | 32 | 1011.7 |